Notices

What's New in latest Release from April 7th, 2021:

- Updated Glossary, including Speed of Maximum Gust, and Total Hourly Precipitation

- Updated national and regional climate services offices contacts and prices information

- Addition of station inventory lists for 1981-2010, 1971-2000, and 1961-1990 Normals.

If you haven't already, please take our survey and provide feedback about our website: https://eccc.sondage-survey.ca/f/LanguageSelection.aspx?s=442ca660-fcf1-47c0-95a9-59707d6fd709

Hourly Data Report for October 23, 2020

CARBERRY CS
MANITOBA
Current Station Operator: ECCC - MSC

49°54'20.900" N
99°21'26.800" W
383.50 m
5010547
71170
WZE

Download Data

Hourly Data (October 2020)
Hourly Data Report for October 23, 2020
TIME
LST
Temp Definition
°C
Dew Point Definition
°C
Rel Hum Definition
%
Precip. Amount Definition
mm

Wind Dir Definition
10's deg

Wind Spd Definition
km/h
Visibility Definition
km
Stn Press Definition
kPa
Hmdx Definition


Wind Chill Definition


Weather Definition


00:00 -5.4 -9.0 76 0.0 28 15   98.28   -11 LegendNANA
01:00 -7.3 -9.3 85 0.0 26 15   98.27   -13 LegendNANA
02:00 -8.2 -10.2 85 0.0 26 15   98.28   -15 LegendNANA
03:00 -9.1 -10.7 88 0.0 26 10   98.28   -14 LegendNANA
04:00 -8.6 -10.0 89 0.0 26 12   98.25   -14 LegendNANA
05:00 -7.4 -9.6 84 0.0 29 15   98.28   -14 LegendNANA
06:00 -8.1 -10.2 84 0.0 27 20   98.27   -15 LegendNANA
07:00 -8.6 -10.6 85 0.0 27 18   98.28   -16 LegendNANA
08:00 -9.8 -11.9 85 0.0 26 12   98.28   -16 LegendNANA
09:00 -8.0 -10.7 81 0.0 26 20   98.27   -15 LegendNANA
10:00 -6.3 -9.9 76 0.0 26 12   98.28   -11 LegendNANA
11:00 -3.9 -8.4 71 0.0 28 24   98.24   -11 LegendNANA
12:00 -3.1 -8.3 67 0.0 28 17   98.20   -9 LegendNANA
13:00 -2.0 -8.0 63 0.0 28 20   98.10   -8 LegendNANA
14:00 -2.0 -8.6 61 0.0 28 21   98.07   -8 LegendNANA
15:00 -2.5 -9.3 60 0.0 28 22   98.05   -9 LegendNANA
16:00 -3.1 -9.8 60 0.0 28 27   98.05   -10 LegendNANA
17:00 -3.9 -10.0 62 0.0 29 21   98.02   -10 LegendNANA
18:00 -4.9 -9.4 71 0.0 27 13   98.03   -10 LegendNANA
19:00 -4.8 -8.9 73 0.0 28 13   98.05   -10 LegendNANA
20:00 -5.5 -9.6 73 0.0 29 13   98.03   -11 LegendNANA
21:00 -6.3 -9.8 76 0.0 27 13   98.03   -12 LegendNANA
22:00 -7.0 -10.1 78 0.0 28 12   98.04   -12 LegendNANA
23:00 -7.6 -9.6 86 0.0 27 8   98.05   -12 LegendNANA

Notes on Data Quality.

Legend

  • E = Estimated
  • M = Missing
  • NA = Not Available*
  • [empty] = Indicates an unobserved value
Date modified: